SCP
0 0 0 0 0 0 0 0 0 0 0 0 0 0 0 0 0 0 0 1 1 1 1 1 1 1 1 1 1 1 1 1 0 0 0 0 0 1 1 1 1 1 1
0 0 0 0 0 0 0 0 0 0 0 0 0 0 0 0 0 0 0 1 1 1 1 1 1 1 1 1 1 1 1 1 1 0 0 0 0 0 0 0 0 1 1
0 0 0 0 0 0 0 0 0 0 0 0 0 0 0 0 0 0 0 1 0 0 1 1 1 1 1 1 1 1 1 1 1 0 0 0 0 0 0 0 0 0 1
0 0 0 0 0 0 0 0 0 0 0 0 0 0 0 0 0 0 0 0 0 0 0 1 1 1 1 1 1 1 1 1 1 1 0 0 0 0 0 0 0 0 0
0 0 0 1 1 1 0 0 0 1 1 0 0 0 0 0 0 0 0 0 0 0 0 0 0 1 1 1 1 1 1 1 1 0 0 0 0 0 0 0 0 0 0
0 0 0 1 1 1 1 1 1 1 1 1 0 0 0 0 0 0 0 0 0 0 0 0 0 0 1 1 1 1 1 1 1 0 0 0 0 0 0 0 0 0 0
0 0 1 1 1 1 1 1 1 1 1 1 1 0 0 0 0 0 0 0 0 0 0 0 0 0 1 1 1 1 1 0 0 0 0 0 0 0 0 0 0 0 0
0 0 1 1 1 1 1 1 1 1 1 1 1 1 0 0 0 0 0 0 0 0 0 0 0 0 1 1 1 1 1 0 0 0 0 0 0 1 1 1 1 1 1
0 0 0 1 1 1 1 1 1 1 1 1 1 1 0 0 0 0 0 0 0 0 0 0 0 0 1 1 1 1 1 0 0 0 0 0 0 1 1 1 1 1 1
0 0 0 1 1 1 1 1 1 1 1 1 1 1 0 0 0 0 0 0 0 0 0 0 0 1 1 1 1 1 1 0 0 0 0 1 1 1 0 0 0 0 0
0 0 0 0 0 0 0 1 1 1 1 1 1 1 0 0 0 0 0 0 0 0 0 0 0 1 1 1 1 1 1 0 0 0 0 1 1 1 1 0 0 0 0
1 0 0 0 0 0 0 0 0 0 1 1 0 0 0 0 0 0 0 0 0 0 0 0 0 1 1 1 1 0 0 0 0 0 0 1 1 1 1 1 1 0 0
1 1 0 0 0 0 0 0 0 0 0 0 0 0 0 0 0 0 0 0 0 0 0 0 0 0 1 1 0 0 0 0 0 0 0 1 1 1 1 1 1 1 1
1 1 1 0 0 0 0 0 0 0 0 0 0 0 0 0 0 0 0 0 0 0 0 0 0 0 0 0 0 0 0 0 0 0 0 1 1 1 1 1 1 1 1
1 1 1 1 0 0 0 0 0 0 0 0 0 0 0 0 0 0 0 0 0 0 0 0 0 0 0 0 0 0 0 0 0 0 0 1 1 1 1 1 1 1 1
2 2 1 1 1 1 1 0 0 0 0 0 0 0 0 0 0 0 0 0 0 0 0 0 0 0 0 0 0 0 0 0 0 0 1 1 1 1 1 1 1 1 1
2 2 2 1 1 1 1 1 0 0 0 0 0 0 0 0 0 0 0 0 0 0 0 0 0 0 0 0 0 0 0 0 1 1 1 1 1 1 1 1 1 1 1
3 2 2 2 2 1 1 1 1 0 0 0 0 0 0 0 0 0 0 0 0 0 0 0 0 0 0 0 0 0 0 0 1 1 1 0 0 0 0 1 1 2 2
3 3 2 2 2 2 1 1 1 1 1 0 0 0 0 0 0 0 0 0 0 0 0 0 0 0 0 0 0 0 0 0 1 1 0 0 0 0 0 0 1 1 1
3 3 2 2 2 2 1 1 1 1 1 0 0 0 0 0 0 0 0 0 0 0 0 0 0 0 0 0 0 0 0 0 0 0 0 0 0 0 0 0 0 1 1
2 2 2 2 2 2 1 1 1 1 1 0 0 0 0 0 0 0 0 0 0 0 0 0 0 0 0 0 0 0 0 0 0 0 0 0 0 0 0 0 0 0 0
1 1 2 2 2 2 1 1 1 1 1 0 0 0 0 0 0 0 0 0 0 0 0 0 0 0 0 0 0 0 0 0 0 0 0 0 0 0 0 0 0 0 0
1 1 1 1 1 1 1 1 1 1 1 1 1 0 0 0 0 0 0 0 0 0 0 0 0 0 0 0 0 0 0 0 0 0 0 0 0 0 0 0 0 0 0
1 1 1 1 1 1 1 1 1 1 1 1 1 1 0 0 0 0 0 0 0 0 0 0 0 0 0 0 0 0 0 0 0 0 0 0 0 0 0 0 0 0 0
1 1 1 1 1 1 2 1 1 1 1 1 1 1 0 0 0 0 0 0 0 0 0 0 0 0 0 0 0 0 0 0 0 0 0 0 0 0 0 0 0 0 0
2 1 1 1 1 1 2 2 1 1 1 2 1 1 1 0 0 0 0 0 0 0 0 0 0 0 0 0 0 0 0 0 0 0 0 0 0 0 0 0 0 0 0
Wind_Speed
1 2 6 7 7 7 8 8 9 9 10 10 10 10 10 10 10 10 10 10 10 10 10 10 9 9 10 10 9 9 9 9 9 9 9 9 8 8 7 7 6 4 7
5 3 7 7 7 7 8 8 8 9 9 9 10 10 10 10 9 9 9 10 10 10 9 9 9 9 9 9 9 9 9 8 9 9 9 8 8 8 7 7 6 4 7
6 5 6 7 8 8 7 8 8 8 8 9 9 9 9 9 9 9 9 9 9 9 9 9 9 9 9 9 9 9 9 9 9 9 7 4 4 7 7 7 7 7 6
7 5 6 8 8 7 7 8 8 8 8 8 8 9 9 8 8 8 8 8 8 9 9 9 9 9 9 9 9 9 10 10 9 8 4 3 3 7 7 7 7 7 6
6 5 6 9 8 8 7 7 7 7 7 7 7 8 8 8 8 7 7 8 8 8 8 8 8 8 8 8 9 9 10 10 9 7 4 3 3 6 8 7 7 7 7
5 4 6 9 8 8 7 7 7 7 6 6 6 7 7 7 7 7 7 7 8 8 8 8 8 8 8 8 9 9 10 9 8 4 3 3 2 6 8 8 7 7 6
5 4 5 8 8 8 7 7 6 6 6 6 6 6 6 6 6 6 7 7 7 7 7 8 8 8 8 8 8 9 9 9 5 4 3 2 3 6 8 8 7 7 7
6 5 4 8 8 8 7 6 6 6 5 5 5 5 5 6 6 6 6 7 7 7 7 7 7 8 8 8 8 8 9 8 6 4 3 2 6 8 9 8 8 7 8
5 4 3 3 5 6 7 6 6 5 4 4 4 4 4 5 5 6 6 6 6 6 6 6 6 7 7 7 8 9 10 9 5 3 4 2 6 8 8 9 9 9 9
4 3 3 2 2 2 2 5 5 5 4 4 4 4 4 4 4 5 5 5 6 5 5 5 6 6 6 6 7 9 9 7 4 3 2 3 7 8 9 9 10 10 9
4 3 3 3 2 2 2 3 3 4 4 4 3 4 4 2 2 2 3 5 5 5 4 5 5 5 5 6 7 8 7 3 3 3 2 6 8 8 9 9 9 9 9
3 2 2 3 3 2 2 2 1 1 1 1 1 2 2 2 1 2 2 4 4 4 4 4 4 5 4 3 5 7 3 3 3 2 3 7 8 9 9 9 9 9 9
4 3 3 3 3 3 2 2 1 1 1 1 1 2 2 2 2 2 1 2 2 3 3 3 4 3 3 3 3 3 3 3 2 2 3 7 8 9 9 9 9 9 10
4 3 4 4 3 3 3 2 2 1 1 1 1 2 2 2 2 1 1 1 1 1 2 2 2 3 4 3 4 3 3 3 2 2 2 7 8 8 9 9 9 9 9
4 4 4 4 4 3 3 2 2 2 1 1 1 1 2 2 2 1 1 1 1 2 2 2 3 4 4 4 4 4 4 4 4 3 3 7 8 8 9 9 9 9 9
4 4 4 4 4 4 3 2 2 1 1 2 2 2 3 2 2 2 2 2 2 2 2 2 3 3 3 3 4 4 3 3 3 3 3 5 8 8 8 8 9 9 9
4 3 4 5 4 4 3 3 2 1 2 2 2 2 3 3 3 3 2 2 2 2 3 3 3 3 4 4 4 3 3 3 3 3 3 3 4 7 8 8 9 8 9
5 4 4 5 5 4 3 3 2 2 2 2 2 2 3 3 3 3 2 2 2 2 3 3 3 3 3 3 3 2 2 2 3 3 3 3 3 3 5 8 8 8 8
5 5 4 4 5 4 4 3 3 3 2 2 2 2 2 3 3 3 2 2 2 3 3 3 3 2 3 3 2 2 2 2 2 3 2 3 3 3 2 5 8 8 8
5 5 5 4 4 4 3 3 3 3 2 2 2 2 3 3 3 3 2 2 3 3 3 3 3 3 2 2 3 3 3 2 2 2 2 2 2 3 3 3 4 5 7
4 4 4 4 3 3 3 2 2 1 1 1 1 2 3 3 3 3 3 2 3 3 3 3 3 3 2 2 3 3 3 4 3 2 2 2 2 2 3 3 3 3 3
5 4 4 4 4 3 3 2 2 2 1 1 1 1 2 3 3 3 3 2 2 3 3 2 2 2 1 1 2 2 2 3 3 3 2 2 2 2 3 3 3 3 3
4 4 4 4 4 4 3 2 2 2 2 2 1 1 1 2 2 2 3 2 2 2 2 2 2 3 1 1 1 2 3 2 1 3 3 2 2 2 2 2 3 3 3
4 4 4 4 4 4 4 4 4 2 2 2 1 1 1 2 2 2 2 2 2 2 2 2 2 2 2 1 1 1 2 3 2 0 2 2 3 3 2 2 3 3 3
4 4 4 4 3 3 3 4 4 2 2 1 1 2 1 1 2 2 2 2 2 2 2 2 2 2 2 2 1 1 1 1 2 3 1 1 2 2 1 1 2 2 2
3 3 4 4 3 2 3 3 4 4 3 2 1 2 1 1 1 2 2 2 2 2 2 2 2 2 2 2 1 1 2 2 2 2 2 1 0 1 1 1 1 1 1
Wind_Direction
207 200 112 100 94 88 86 87 82 81 82 81 81 81 82 80 79 79 77 76 76 75 75 75 73 72 72 74 75 76 79 83 87 90 89 89 90 95 98 97 93 87 96
167 156 116 107 101 95 92 91 89 84 84 84 84 83 81 81 81 80 79 79 77 76 75 75 71 70 71 72 72 74 76 80 85 86 84 83 84 88 94 99 99 95 95
147 144 125 114 109 102 97 96 95 89 87 86 86 85 82 82 83 80 79 79 79 78 77 75 72 70 72 69 68 72 75 81 81 81 74 61 77 88 93 96 97 97 98
144 145 131 126 118 112 106 101 99 93 90 88 88 87 85 82 82 79 78 79 79 79 77 76 75 73 70 68 68 69 73 77 76 74 65 52 62 87 93 95 93 92 94
137 140 138 133 126 119 112 107 103 98 94 92 90 88 87 84 83 83 81 83 83 80 78 76 76 73 70 71 72 70 74 73 75 67 63 54 59 84 88 93 91 88 89
140 146 147 140 135 129 123 117 112 107 102 99 94 89 88 87 85 85 86 86 86 85 81 78 75 73 73 73 74 72 75 75 71 63 59 56 69 90 90 91 90 85 84
146 153 152 146 141 135 130 125 119 113 109 104 98 93 90 89 89 89 88 87 88 87 85 81 76 74 74 75 77 75 79 77 70 61 59 55 78 94 94 90 87 84 81
148 154 155 150 145 142 136 131 125 119 115 109 101 95 93 94 92 90 91 91 89 87 84 81 77 76 77 76 77 77 77 71 68 59 53 55 84 93 94 90 87 85 82
139 142 148 151 152 153 149 143 137 132 124 116 104 100 99 103 101 98 96 95 93 88 86 79 75 78 76 75 75 75 74 69 54 44 64 62 87 92 92 88 87 86 84
121 133 149 151 154 162 157 149 147 141 129 116 101 94 102 105 108 105 101 101 98 93 85 73 70 78 74 71 74 73 73 66 51 46 39 74 87 90 91 89 88 87 84
115 129 135 139 149 162 165 139 132 131 121 106 90 85 85 73 81 96 101 105 104 94 78 68 68 72 65 65 70 70 69 57 54 47 42 82 88 91 93 92 91 88 86
140 146 139 145 141 141 133 115 101 112 100 82 78 79 79 82 86 94 82 92 88 74 58 58 61 58 53 49 61 67 63 64 57 44 62 80 88 92 93 93 91 87 86
160 143 142 149 135 127 112 115 102 88 89 73 77 88 90 82 76 70 59 46 42 52 39 40 46 43 50 60 67 71 72 70 56 37 56 81 89 92 93 93 91 88 87
134 131 137 139 126 128 118 118 116 103 106 104 100 104 100 88 86 85 77 60 54 50 48 43 54 53 58 71 82 82 77 71 57 40 52 78 86 89 90 91 91 91 90
133 133 135 128 121 121 110 117 111 111 114 112 90 102 111 107 109 109 94 78 63 59 64 69 74 72 66 70 81 86 83 78 67 57 53 77 84 85 87 88 90 91 91
144 147 136 125 128 121 114 111 103 100 108 98 84 87 107 111 113 106 90 77 66 68 71 85 91 87 75 73 71 72 82 90 77 68 54 60 69 78 85 87 89 88 88
148 142 137 139 128 120 119 116 104 103 91 86 81 85 97 101 105 104 93 80 73 76 76 74 72 74 77 74 67 64 73 84 89 78 67 53 52 65 75 83 85 88 93
143 141 142 132 124 122 120 114 107 100 96 85 78 82 91 93 95 101 97 85 80 79 79 79 76 76 70 71 64 54 63 71 83 84 72 66 58 54 60 73 79 85 97
149 146 134 129 130 129 122 114 106 94 86 85 80 81 85 87 92 99 98 94 85 76 72 86 77 90 84 75 75 60 49 60 71 86 83 77 71 64 52 66 71 79 92
142 138 132 128 124 120 112 95 81 77 71 71 76 80 86 85 90 97 95 87 88 84 72 74 80 69 81 87 83 63 42 37 53 66 85 78 74 79 63 58 53 61 79
134 132 133 130 128 119 114 112 101 98 79 67 76 88 94 96 99 98 100 89 91 97 102 102 92 78 62 73 79 52 29 31 41 36 55 73 71 71 68 60 52 48 54
146 146 146 147 146 142 146 151 146 142 127 126 102 89 98 100 108 115 114 113 108 102 98 99 102 95 71 72 106 95 44 13 11 24 32 66 68 65 69 71 60 56 53
145 155 156 156 151 149 140 116 93 69 57 50 66 86 98 119 118 117 126 129 130 128 138 138 130 126 131 28 100 136 137 180 324 360 18 43 58 62 56 62 69 63 65
168 157 146 146 147 150 139 135 137 141 160 199 180 162 162 144 133 132 141 140 141 140 143 154 134 137 138 153 351 52 141 148 143 91 357 17 45 59 59 76 79 72 72
158 152 144 132 134 141 140 146 147 155 180 180 144 134 136 151 160 160 163 158 155 152 156 146 126 131 143 157 164 128 89 84 109 136 156 359 24 20 41 74 87 77 76
133 137 136 134 136 145 143 155 162 165 165 151 158 163 169 173 190 183 173 174 173 166 163 161 148 149 157 148 150 151 149 148 158 140 150 162 144 343 22 50 95 100 94